TimePST,TemperatureF,Dew PointF,Humidity,Sea Level PressureIn,VisibilityMPH,Wind Direction,Wind SpeedMPH,Gust SpeedMPH,PrecipitationIn,Events,Conditions,WindDirDegrees,DateUTC
12:00 AM,44.6,43.7,97,30.18,-9999.0,North,15.0,-,N/A,,Unknown,350,2013-11-24 08:00:00
1:00 AM,44.6,43.7,97,30.18,-9999.0,North,12.7,-,N/A,,Unknown,350,2013-11-24 09:00:00
2:00 AM,44.1,43.2,97,30.17,-9999.0,North,15.0,-,N/A,,Unknown,350,2013-11-24 10:00:00
3:00 AM,44.8,44.1,97,30.18,-9999.0,North,8.1,-,N/A,,Unknown,360,2013-11-24 11:00:00
4:00 AM,47,44,87,30.16,,SSE,18.4,,,,,150,2013-11-24 12:00:00
4:00 AM,46.9,44.4,91,30.16,-9999.0,SSE,18.4,-,N/A,,Unknown,150,2013-11-24 12:00:00
5:00 AM,47.3,43.9,88,30.15,-9999.0,SSE,15.0,-,N/A,,Unknown,150,2013-11-24 13:00:00
6:00 AM,48.0,44.4,87,30.14,-9999.0,SE,13.8,-,N/A,,Unknown,140,2013-11-24 14:00:00
7:00 AM,48.2,43.9,85,30.13,-9999.0,SE,18.4,-,N/A,,Unknown,140,2013-11-24 15:00:00
8:00 AM,47.7,44.1,87,30.14,-9999.0,SSE,18.4,-,N/A,,Unknown,150,2013-11-24 16:00:00
9:00 AM,46.2,43.3,90,30.14,-9999.0,SSE,11.5,-,N/A,,Unknown,150,2013-11-24 17:00:00
10:00 AM,46,43,85,30.12,,SE,18.4,,,,,130,2013-11-24 18:00:00
10:00 AM,45.7,43.0,90,30.12,-9999.0,SE,18.4,-,N/A,,Unknown,130,2013-11-24 18:00:00
11:00 AM,46.6,43.5,89,30.13,-9999.0,SE,21.9,-,N/A,,Unknown,140,2013-11-24 19:00:00
12:00 PM,46.2,44.8,95,30.11,-9999.0,SSE,23.0,-,N/A,,Unknown,150,2013-11-24 20:00:00
1:00 PM,47.7,44.2,88,30.09,-9999.0,SSE,21.9,-,N/A,,Unknown,150,2013-11-24 21:00:00
2:00 PM,47.8,44.4,88,30.09,-9999.0,SSE,24.2,-,N/A,,Unknown,150,2013-11-24 22:00:00
3:00 PM,47.8,45.5,92,30.08,-9999.0,SSE,23.0,-,N/A,,Unknown,150,2013-11-24 23:00:00
4:00 PM,48,46,88,30.06,,SSE,25.3,,,,,150,2013-11-25 00:00:00
4:00 PM,48.0,45.5,91,30.06,-9999.0,SSE,25.3,-,N/A,,Unknown,150,2013-11-25 00:00:00
5:00 PM,48.4,46.0,92,30.06,-9999.0,SSE,24.2,-,N/A,,Unknown,160,2013-11-25 01:00:00
6:00 PM,48.6,46.2,92,30.06,-9999.0,SSE,26.5,-,N/A,,Unknown,150,2013-11-25 02:00:00
7:00 PM,48.6,46.2,92,30.06,-9999.0,SSE,24.2,-,N/A,,Unknown,150,2013-11-25 03:00:00
8:00 PM,48.6,46.2,92,30.04,-9999.0,SSE,20.7,-,N/A,,Unknown,150,2013-11-25 04:00:00
9:00 PM,48.6,46.2,92,30.04,-9999.0,SSE,24.2,-,N/A,,Unknown,150,2013-11-25 05:00:00
10:00 PM,48,46,89,30.05,,SSE,20.7,,,,,160,2013-11-25 06:00:00
10:00 PM,48.4,45.9,91,30.05,-9999.0,SSE,20.7,-,N/A,,Unknown,160,2013-11-25 06:00:00
11:00 PM,48.6,46.0,91,30.06,-9999.0,SSE,19.6,-,N/A,,Unknown,160,2013-11-25 07:00:00